Weather History for Buffalo, MN

Change the Weather History Date:

Sunday, September 8, 2013

  Actual Average (KSTC) Record (KSTC)
Temperature  
Mean Temperature 67 °F 62 °F  
Max Temperature 72 °F 74 °F 102 °F (1931)
Min Temperature 62 °F 50 °F 34 °F (1995)
Degree Days  
Heating Degree Days 0 5  
Month to date heating degree days 32  
Since 1 July heating degree days 90  
Cooling Degree Days 2 2  
Month to date cooling degree days 16  
Year to date cooling degree days 445  
Growing Degree Days 17 (Base 50)    
Moisture  
Dew Point 57 °F    
Average Humidity 72    
Maximum Humidity 81    
Minimum Humidity 61    
Precipitation  
Precipitation 0.00 in 0.12 in 3.62 in (1985)
Month to date precipitation 1.05  
Year to date precipitation 20.63  
Snow  
Snow 0.00 in 0.00 in 0.00 in ()
Month to date snowfall 0.0  
Since 1 July snowfall 0.0  
Since 1 September snowfall 0.0  
Snow Depth -    
Sea Level Pressure  
Sea Level Pressure 30.00 in    
Wind  
Wind Speed 8 mph (ENE)    
Max Wind Speed 12 mph    
Max Gust Speed 16 mph    
Visibility 10 miles    
Events Rain    
T = Trace of Precipitation, MM = Missing Value Source: NWS Daily Summary

Daily Weather History Graph

Daily Weather History Graph

Search for Another Location

Airport:

Trip Planner

Search our weather history database for the weather conditions in past years. The results will help you decide how hot, cold, wet, or windy it might be!

Date:

Astronomy

Sep. 08, 2013 Rise Set
Actual Time 6:45 AM CDT 7:39 PM CDT
Civil Twilight 6:15 AM CDT 8:08 PM CDT
Nautical Twilight 5:40 AM CDT 8:44 PM CDT
Astronomical Twilight 5:02 AM CDT 9:21 PM CDT
Moon 10:15 AM CDT (9/8) 9:02 PM CDT (9/8)
Length of Visible Light 13h 52m
Length of Day
12h 53m
Waxing Crescent, 11% of the Moon is Illuminated
Sep 8
Waxing Crescent
Sep 12
First Quarter
Sep 19
Full
Sep 26
Last Quarter
Oct 4
New

Hourly Weather History & Observations

Time (CDT) Temp. Dew Point Humidity Pressure Visibility Wind Dir Wind Speed Gust Speed Precip Events Conditions
12:15 AM 68.2 °F 58.3 °F 71% 30.05 in 10.0 mi NE 10.4 mph - N/A   Clear
12:36 AM 67.5 °F 58.1 °F 72% 30.05 in 10.0 mi NE 8.1 mph - N/A   Clear
12:56 AM 67.3 °F 58.3 °F 73% 30.06 in 10.0 mi NE 9.2 mph - N/A   Clear
1:15 AM 66.4 °F 57.7 °F 74% 30.06 in 10.0 mi NE 6.9 mph - N/A   Clear
1:36 AM 65.5 °F 57.6 °F 76% 30.06 in 10.0 mi NE 8.1 mph - N/A   Clear
1:56 AM 65.5 °F 57.6 °F 76% 30.06 in 10.0 mi NE 8.1 mph - N/A   Clear
2:15 AM 64.4 °F 57.2 °F 77% 30.05 in 10.0 mi NE 6.9 mph - N/A   Clear
2:36 AM 64.0 °F 57.2 °F 78% 30.05 in 10.0 mi NE 8.1 mph - N/A   Clear
2:56 AM 63.7 °F 57.2 °F 79% 30.06 in 10.0 mi NE 8.1 mph - N/A   Clear
3:15 AM 63.5 °F 57.2 °F 80% 30.05 in 10.0 mi NE 9.2 mph - N/A   Clear
3:36 AM 63.0 °F 57.2 °F 81% 30.05 in 10.0 mi NE 8.1 mph - N/A   Clear
3:56 AM 62.8 °F 56.8 °F 81% 30.05 in 10.0 mi NE 9.2 mph - N/A   Clear
4:15 AM 62.8 °F 56.7 °F 80% 30.05 in 10.0 mi NE 9.2 mph - N/A   Clear
4:36 AM 62.8 °F 56.3 °F 79% 30.04 in 10.0 mi ENE 11.5 mph - N/A   Clear
4:56 AM 62.6 °F 55.0 °F 76% 30.04 in 10.0 mi NE 10.4 mph - N/A   Clear
5:15 AM 62.6 °F 53.6 °F 72% 30.05 in 10.0 mi ENE 10.4 mph 16.1 mph N/A   Scattered Clouds
5:36 AM 63.5 °F 52.0 °F 66% 30.05 in 10.0 mi ENE 11.5 mph 16.1 mph N/A   Mostly Cloudy
5:56 AM 63.7 °F 50.9 °F 63% 30.05 in 10.0 mi NE 8.1 mph - N/A   Overcast
6:15 AM 63.7 °F 50.2 °F 61% 30.05 in 10.0 mi NE 9.2 mph - N/A   Overcast
6:36 AM 63.5 °F 50.4 °F 62% 30.05 in 10.0 mi ENE 9.2 mph - N/A   Overcast
6:56 AM 63.7 °F 50.5 °F 62% 30.06 in 10.0 mi ENE 8.1 mph - N/A   Overcast
7:16 AM 63.7 °F 50.9 °F 63% 30.06 in 10.0 mi NE 5.8 mph - N/A   Overcast
7:36 AM 63.7 °F 51.1 °F 64% 30.06 in 10.0 mi NE 6.9 mph - N/A   Overcast
7:56 AM 64.4 °F 51.8 °F 64% 30.06 in 10.0 mi ENE 8.1 mph - N/A   Overcast
8:16 AM 64.0 °F 52.2 °F 65% 30.06 in 10.0 mi ENE 5.8 mph - N/A   Overcast
8:36 AM 64.4 °F 52.9 °F 66% 30.06 in 10.0 mi ENE 6.9 mph - N/A   Overcast
8:56 AM 65.5 °F 53.8 °F 66% 30.06 in 10.0 mi East 6.9 mph - N/A   Overcast
9:16 AM 65.5 °F 54.5 °F 68% 30.06 in 10.0 mi East 6.9 mph - N/A   Overcast
9:36 AM 66.2 °F 55.2 °F 68% 30.06 in 10.0 mi ENE 9.2 mph - N/A   Overcast
9:56 AM 66.4 °F 55.6 °F 68% 30.06 in 10.0 mi ENE 8.1 mph - N/A   Scattered Clouds
10:16 AM 66.7 °F 56.3 °F 69% 30.05 in 10.0 mi East 9.2 mph - N/A   Clear
10:36 AM 67.3 °F 57.0 °F 70% 30.06 in 10.0 mi East 8.1 mph - N/A   Clear
10:56 AM 67.3 °F 57.2 °F 70% 30.06 in 10.0 mi East 6.9 mph - N/A   Scattered Clouds
11:16 AM 67.3 °F 57.6 °F 71% 30.06 in 10.0 mi ENE 5.8 mph - N/A   Mostly Cloudy
11:36 AM 67.6 °F 57.9 °F 71% 30.06 in 10.0 mi East 5.8 mph - N/A   Overcast
11:56 AM 67.8 °F 58.3 °F 71% 30.04 in 10.0 mi East 9.2 mph - N/A   Overcast
12:16 PM 68.2 °F 58.5 °F 71% 30.05 in 10.0 mi East 4.6 mph - N/A   Overcast
12:36 PM 68.2 °F 58.6 °F 71% 30.05 in 10.0 mi ESE 6.9 mph - N/A   Overcast
12:56 PM 67.5 °F 60.4 °F 78% 30.00 in 10.0 mi East 11.5 mph 16.1 mph N/A Rain Light Rain
1:16 PM 67.6 °F 60.3 °F 77% 30.03 in 10.0 mi East 3.5 mph - N/A Rain Light Rain
1:36 PM 69.1 °F 61.0 °F 75% 30.02 in 10.0 mi East 4.6 mph - N/A   Overcast
1:56 PM 68.2 °F 60.4 °F 76% 29.99 in 10.0 mi ESE 6.9 mph - N/A   Mostly Cloudy
2:16 PM 69.8 °F 60.8 °F 73% 29.99 in 10.0 mi East 9.2 mph - N/A Rain Light Rain
2:36 PM 69.8 °F 61.7 °F 75% 29.98 in 10.0 mi ESE 6.9 mph - N/A Rain Light Rain
2:55 PM 70.0 °F 61.7 °F 75% 29.99 in 10.0 mi ENE 4.6 mph - N/A   Overcast
3:16 PM 71.1 °F 61.2 °F 71% 29.96 in 10.0 mi East 4.6 mph - N/A   Overcast
3:36 PM 72.0 °F 61.2 °F 69% 29.96 in 10.0 mi East 4.6 mph - N/A   Overcast
3:56 PM 72.0 °F 60.3 °F 67% 29.96 in 10.0 mi ENE 4.6 mph - N/A   Overcast
4:16 PM 71.6 °F 59.9 °F 66% 29.96 in 10.0 mi ENE 6.9 mph - N/A   Overcast
4:36 PM 71.4 °F 60.3 °F 68% 29.96 in 10.0 mi NNE 6.9 mph - N/A   Overcast
4:56 PM 70.9 °F 59.2 °F 66% 29.96 in 10.0 mi NNE 10.4 mph - N/A   Overcast
5:16 PM 70.2 °F 58.8 °F 67% 29.95 in 10.0 mi NNE 10.4 mph - N/A   Overcast
5:36 PM 70.0 °F 57.9 °F 65% 29.94 in 10.0 mi NE 6.9 mph - N/A   Overcast
5:56 PM 69.1 °F 57.9 °F 68% 29.94 in 10.0 mi NE 6.9 mph - N/A   Overcast
6:16 PM 68.2 °F 57.4 °F 68% 29.94 in 10.0 mi NE 6.9 mph - N/A   Overcast
6:36 PM 67.3 °F 57.4 °F 70% 29.94 in 10.0 mi NNE 8.1 mph - N/A   Overcast
6:56 PM 66.7 °F 57.2 °F 71% 29.94 in 10.0 mi NNE 10.4 mph - N/A   Overcast
7:16 PM 66.4 °F 56.8 °F 71% 29.94 in 10.0 mi NE 8.1 mph - N/A   Overcast
7:36 PM 65.7 °F 56.8 °F 73% 29.93 in 10.0 mi NE 8.1 mph - N/A   Overcast
7:56 PM 65.5 °F 56.8 °F 74% 29.94 in 10.0 mi NNE 6.9 mph - N/A   Overcast
8:16 PM 65.5 °F 57.0 °F 74% 29.94 in 10.0 mi NE 6.9 mph - N/A   Overcast
8:36 PM 65.5 °F 56.8 °F 74% 29.94 in 10.0 mi NE 5.8 mph - N/A   Overcast
8:56 PM 65.3 °F 57.2 °F 75% 29.93 in 10.0 mi ENE 5.8 mph - N/A   Overcast
9:16 PM 65.5 °F 57.2 °F 75% 29.92 in 10.0 mi NE 4.6 mph - N/A   Overcast
9:36 PM 65.5 °F 57.2 °F 75% 29.92 in 10.0 mi NE 3.5 mph - N/A   Overcast
9:56 PM 65.5 °F 57.2 °F 75% 29.91 in 10.0 mi NE 3.5 mph - N/A   Overcast
10:16 PM 65.5 °F 57.4 °F 75% 29.91 in 10.0 mi NE 3.5 mph - N/A   Overcast
10:35 PM 65.5 °F 57.6 °F 76% 29.91 in 10.0 mi NE 3.5 mph - N/A   Overcast
10:56 PM 65.5 °F 57.6 °F 76% 29.90 in 10.0 mi NE 4.6 mph - N/A   Overcast
11:16 PM 65.5 °F 58.1 °F 77% 29.90 in 10.0 mi ENE 3.5 mph - N/A   Overcast
11:35 PM 65.5 °F 58.1 °F 77% 29.90 in 10.0 mi East 3.5 mph - N/A   Overcast
11:56 PM 65.8 °F 58.5 °F 77% 29.89 in 10.0 mi Calm Calm - N/A   Overcast